Location: Nassau
(25.0830°N, 77.3500°W)
Time: 23:35:14
(UTC-04:00)

ISS - All Passes

Search period start: 28 April 2017 00:00
Search period end: 08 May 2017 00:00
Orbit: 401 x 409 km, 51.6° (Epoch: 29 April)

Date Brightness Start Highest point End Pass type
(mag) Time Alt. Az. Time Alt. Az. Time Alt. Az.
28 Apr - 06:58:16 10° SSW 07:01:29 58° SE 07:04:41 10° NE daylight
28 Apr - 15:09:55 10° N 15:11:59 16° NE 15:14:02 10° E daylight
28 Apr - 16:45:40 10° WNW 16:48:27 26° SW 16:51:12 10° S daylight
29 Apr - 06:06:55 10° S 06:09:35 23° SE 06:12:14 10° ENE visible
29 Apr - 07:43:44 10° W 07:46:00 17° NW 07:48:16 10° N daylight
29 Apr - 15:53:18 10° NW 15:56:32 68° SW 15:59:45 10° SSE daylight
30 Apr - 06:50:50 10° WSW 06:53:54 36° NW 06:56:56 10° NNE daylight
30 Apr - 15:01:24 10° NNW 15:04:32 44° NE 15:07:39 10° ESE daylight
01 May - 05:58:36 10° SW 06:01:51 86° SE 06:05:08 10° NE visible
01 May - 14:09:56 10° N 14:12:25 20° NE 14:14:56 10° E daylight
01 May - 15:46:25 10° WNW 15:48:47 19° SW 15:51:09 10° S daylight
02 May - 05:06:57 10° SSW 05:09:54 32° SE 05:12:51 10° ENE visible
02 May - 06:44:42 10° WNW 06:46:25 13° NW 06:48:09 10° N daylight
02 May - 13:19:43 10° NNE 13:20:13 10° NE 13:20:43 10° NE daylight
02 May - 14:53:44 10° NW 14:56:52 46° SW 14:59:59 10° SSE daylight
03 May - 04:16:13 10° SSE 04:17:59 14° SE 04:19:45 10° E visible
03 May - 05:51:25 10° WSW 05:54:14 27° NW 05:57:05 10° NNE visible
03 May - 14:01:38 10° NW 14:04:51 65° NE 14:08:04 10° SE daylight
04 May - 04:58:54 10° SW 05:02:09 66° NW 05:05:23 10° NE visible
04 May - 13:09:56 10° NNW 13:12:45 26° NE 13:15:33 10° ESE daylight
04 May - 14:47:15 10° W 14:49:00 14° SW 14:50:45 10° SSW daylight
05 May - 04:06:59 10° SSW 04:10:07 45° SE 04:13:16 10° NE visible
05 May - 05:46:03 10° NW 05:46:45 10° NW 05:47:27 10° NNW visible
05 May - 12:18:53 10° N 12:20:32 13° NE 12:22:12 10° ENE daylight
05 May - 13:54:07 10° WNW 13:57:04 32° SW 14:00:00 10° SSE daylight
06 May - 03:15:45 10° S 03:18:09 19° SE 03:20:32 10° ENE visible
06 May - 04:51:57 10° W 04:54:29 21° NW 04:57:02 10° N visible
06 May - 13:01:48 10° NW 13:05:02 87° WSW 13:08:17 10° SE daylight
07 May - 03:59:10 10° WSW 04:02:20 46° NW 04:05:29 10° NNE visible
07 May - 12:09:55 10° NNW 12:12:56 36° NE 12:15:58 10° ESE daylight
